This is the latest recevied weather packets stored in our database for station/object NR6G-5. If no packets are shown the sender has not sent any weather packets the latest 1 day(s).
| Time | Temp. | Humidity | Pressure | Rain* | Wind** | Luminosity | Snow |
|---|---|---|---|---|---|---|---|
| 1778093573 | 20° C | 56% | 1018.6 hPa | 0 mm | - | - | - |
| 1778092973 | 20° C | 58% | 1018.8 hPa | 0 mm | - | - | - |
| 1778091773 | 19.44° C | 62% | 1019 hPa | 0 mm | - | - | - |
| 1778090371 | 18.89° C | 64% | 1019.2 hPa | 0 mm | - | - | - |
| 1778089770 | 18.89° C | 66% | 1019.3 hPa | 0 mm | - | - | - |
| 1778089471 | 18.89° C | 68% | 1019.3 hPa | 0 mm | - | - | - |
| 1778087372 | 17.22° C | 70% | 1019.6 hPa | 0 mm | - | - | - |
| 1778087070 | 17.22° C | 70% | 1019.6 hPa | 0 mm | - | - | - |
| 1778086770 | 17.22° C | 71% | 1019.6 hPa | 0 mm | - | - | - |
| 1778086471 | 17.22° C | 72% | 1019.6 hPa | 0 mm | - | - | - |
| 1778085872 | 16.67° C | 72% | 1019.6 hPa | 0 mm | - | - | - |
| 1778082858 | 16.11° C | 74% | 1019.7 hPa | 0 mm | - | - | - |
| 1778081956 | 15.56° C | 75% | 1019.8 hPa | 0 mm | - | - | - |
| 1778081658 | 15.56° C | 75% | 1019.8 hPa | 0 mm | - | - | - |
| 1778080457 | 15° C | 77% | 1019.7 hPa | 0 mm | - | - | - |
| 1778079858 | 14.44° C | 76% | 1019.7 hPa | 0 mm | - | - | - |
| 1778078130 | 14.44° C | 78% | 1019.5 hPa | 0 mm | - | - | - |
| 1778077229 | 13.89° C | 81% | 1019.5 hPa | 0 mm | - | - | - |
| 1778073629 | 10.56° C | 92% | 1018.7 hPa | 0 mm | - | - | - |
| 1778071829 | 10.56° C | 92% | 1018.5 hPa | 0 mm | - | - | - |
| 1778071230 | 10.56° C | 90% | 1018.4 hPa | 0 mm | - | - | - |
| 1778070929 | 10.56° C | 91% | 1018.5 hPa | 0 mm | - | - | - |
| 1778068281 | 11.11° C | 91% | 1018.2 hPa | 0 mm | - | - | - |
| 1778067381 | 10.56° C | 87% | 1018.1 hPa | 0 mm | - | - | - |
| 1778067081 | 11.11° C | 87% | 1018.1 hPa | 0 mm | - | - | - |
* Rain latest hour (hover to see other rain measurements)
** Current wind speed in m/s (hover to see current wind gust speed)